Location: El Bakhil
(32.7726°N, 5.5387°W)
Time: 08:04:20
(UTC+00:00)

CAS-4B - Visible Passes

Search period start: 06 December 2022 00:00
Search period end: 16 December 2022 00:00
Orbit: 518 x 534 km, 43.0° (Epoch: 05 December)

Date Brightness Start Highest point End Pass type
(mag) Time Alt. Az. Time Alt. Az. Time Alt. Az.
06 Dec ? 04:51:05 33° E 04:51:05 33° E 04:53:30 10° ENE visible
06 Dec ? 06:26:15 12° W 06:29:34 32° NNW 06:33:16 10° NE visible
07 Dec ? 04:38:31 19° ENE 04:38:31 19° ENE 04:39:42 10° ENE visible
07 Dec ? 06:13:40 18° WNW 06:15:49 29° NNW 06:19:23 10° NE visible
08 Dec ? 04:25:45 11° ENE 04:25:45 11° ENE 04:25:53 10° ENE visible
08 Dec ? 06:00:54 22° NW 06:02:04 26° NNW 06:05:31 10° NE visible
09 Dec ? 05:48:00 24° NNW 05:48:18 24° NNW 05:51:38 10° NE visible
10 Dec ? 05:34:59 22° N 05:34:59 22° N 05:37:46 10° NE visible
11 Dec ? 05:21:55 19° NNE 05:21:55 19° NNE 05:23:55 10° NE visible
12 Dec ? 05:08:47 15° NNE 05:08:47 15° NNE 05:10:03 10° NE visible
12 Dec ? 06:44:38 10° NW 06:47:52 22° NNE 06:51:06 10° ENE visible
13 Dec ? 04:55:36 13° NE 04:55:36 13° NE 04:56:13 10° NE visible
13 Dec ? 06:30:45 10° NW 06:34:05 24° NNE 06:37:25 10° ENE visible
14 Dec ? 06:17:32 14° NW 06:20:17 26° NNE 06:23:44 10° ENE visible
15 Dec ? 06:04:21 18° NNW 06:06:28 29° NNE 06:10:01 10° E visible
